Date String (YYYY-MM-DD hh:mm:ss) UTC,Instrument flags,absolute air pressure of the measurement (hPa),sample flow rate (lpm),inlet stack bypass flow (lpm),air temperature of the measurement (°C),ambient temperature measured by the external sensor (°C),aerosol sample conditioner tube jacket temperature (°C),OPC LED temperature (°C),internal box temperature (°C),relative humidity of the measurement (%),span deviation,mass concentration of particles derived from Lorenz-Mie calculation of OPC scattering (μg/m³),mass concentration of particles derived from Lorenz-Mie calculation of OPC scattering (μg/m³),mass concentration of particles derived from Lorenz-Mie calculation of OPC scattering (μg/m³)
DateTimeUTC,F1_M11,P_M11,Q1_M11,Q2_M11,T1_M11,T2_M11,T3_M11,T4_M11,T5_M11,U1_M11,ZSPAN_M11,X0_M11,X2_M11,X1_M11
2024-01-22 07:00:00,SystemResetWarning,0822.1,5.00,000.00,021.5,020.7,000.0,029.9,022.9,15.7,0001.5,0007.87,0004.88,0004.69
2024-01-22 07:01:00,SystemResetWarning,0822.2,5.00,000.00,021.5,020.7,000.0,029.9,022.8,15.7,0001.4,0008.20,0005.04,0004.82
2024-01-22 07:02:00,SystemResetWarning,0822.2,5.00,000.00,021.5,020.7,000.0,029.9,022.8,15.7,0002.0,0008.42,0005.18,0004.96
2024-01-22 07:03:00,SystemResetWarning,0822.2,4.99,000.00,021.5,020.7,000.0,029.9,022.8,15.7,0002.1,0008.58,0005.32,0005.09
2024-01-22 07:04:00,SystemResetWarning,0822.1,5.00,000.00,021.5,020.7,000.0,029.9,022.8,15.7,0001.4,0008.72,0005.44,0005.19
2024-01-22 07:05:00,SystemResetWarning,0822.1,4.99,000.00,021.5,020.7,000.0,029.9,022.8,15.7,0001.8,0008.90,0005.56,0005.30
2024-01-22 07:06:00,SystemResetWarning,0822.1,5.01,000.00,021.5,020.7,000.0,029.9,022.8,15.7,0002.3,0009.19,0005.74,0005.46
2024-01-22 07:07:00,SystemResetWarning,0822.1,5.00,000.00,021.5,020.7,000.0,029.9,022.8,15.7,0002.7,0009.35,0005.84,0005.54
2024-01-22 07:08:00,SystemResetWarning,0822.1,5.00,000.00,021.5,020.7,000.0,029.9,022.8,15.7,0002.7,0009.42,0005.88,0005.58
2024-01-22 07:09:00,SystemResetWarning,0822.1,5.00,000.00,021.5,020.7,000.0,029.9,022.8,15.7,0002.7,0009.90,0005.87,0005.59
2024-01-22 07:10:00,SystemResetWarning,0822.1,5.00,000.00,021.5,020.7,000.0,029.9,022.8,15.7,0003.1,0010.01,0005.84,0005.55
2024-01-22 07:11:00,SystemResetWarning,0822.1,5.00,000.00,021.5,020.7,000.0,029.9,022.9,15.7,0003.0,0009.91,0005.78,0005.51
2024-01-22 07:12:00,SystemResetWarning,0822.1,5.00,000.00,021.5,020.7,000.0,029.9,022.9,15.7,0003.0,0009.69,0005.73,0005.49
2024-01-22 07:13:00,SystemResetWarning,0822.1,5.00,000.00,021.5,020.7,000.0,029.9,022.9,15.7,0002.5,0009.61,0005.70,0005.47
2024-01-22 07:14:00,SystemResetWarning,0822.0,4.99,000.00,021.5,020.7,000.0,029.9,022.9,15.7,0002.9,0009.53,0005.65,0005.44
2024-01-22 07:15:00,SystemResetWarning,0822.1,5.00,000.00,021.5,020.7,000.0,029.9,022.9,15.7,0003.4,0009.48,0005.63,0005.42
2024-01-22 07:16:00,SystemResetWarning,0822.1,5.00,000.00,021.5,020.7,000.0,029.9,022.9,15.7,0003.5,0009.49,0005.65,0005.43
2024-01-22 07:17:00,SystemResetWarning,0822.0,5.01,000.00,021.5,020.7,000.0,029.9,022.9,15.7,0003.3,0009.53,0005.66,0005.45
2024-01-22 07:18:00,SystemResetWarning,0822.0,5.01,000.00,021.5,020.7,000.0,029.9,022.9,15.7,0003.2,0009.53,0005.68,0005.48
2024-01-22 07:19:00,SystemResetWarning,0822.0,5.00,000.00,021.5,020.6,000.0,029.9,022.9,15.7,0002.9,0009.50,0005.68,0005.49
2024-01-22 07:20:00,SystemResetWarning,0822.0,5.00,000.00,021.5,020.6,000.0,029.9,022.9,15.7,0002.2,0009.04,0005.71,0005.52
2024-01-22 07:21:00,SystemResetWarning,0822.0,5.00,000.00,021.5,020.6,000.0,029.9,022.9,15.7,0002.0,0008.87,0005.70,0005.52
2024-01-22 07:22:00,SystemResetWarning,0822.0,5.00,000.00,021.5,020.7,000.0,029.9,022.9,15.7,0002.2,0008.82,0005.68,0005.50
2024-01-22 07:23:00,SystemResetWarning,0822.0,5.00,000.00,021.5,020.7,000.0,029.9,022.9,15.7,0002.2,0008.89,0005.63,0005.46
2024-01-22 07:24:00,SystemResetWarning,0822.0,5.00,000.00,021.5,020.7,000.0,029.9,022.9,15.7,0002.5,0008.87,0005.60,0005.43
2024-01-22 07:25:00,SystemResetWarning,0822.0,5.00,000.00,021.5,020.6,000.0,029.9,022.9,15.7,0002.4,0008.91,0005.61,0005.42
2024-01-22 07:26:00,SystemResetWarning,0822.0,4.99,000.00,021.5,020.6,000.0,029.9,022.9,15.7,0002.4,0008.89,0005.60,0005.40
2024-01-22 07:27:00,SystemResetWarning,0822.0,5.01,000.00,021.5,020.6,000.0,029.9,022.9,15.7,0002.3,0008.86,0005.57,0005.37
2024-01-22 07:28:00,SystemResetWarning,0822.0,5.01,000.00,021.5,020.6,000.0,029.9,022.9,15.7,0002.8,0008.76,0005.54,0005.35
2024-01-22 07:29:00,SystemResetWarning,0822.0,5.00,000.00,021.5,020.6,000.0,029.9,022.9,15.7,0002.9,0008.76,0005.51,0005.33
2024-01-22 07:30:00,SystemResetWarning,0822.0,5.00,000.00,021.5,020.7,000.0,029.9,022.9,15.7,0003.3,0008.75,0005.49,0005.30
2024-01-22 07:31:00,SystemResetWarning,0822.1,5.00,000.00,021.5,020.7,000.0,029.9,022.9,15.7,0003.7,0008.71,0005.46,0005.27
2024-01-22 07:32:00,SystemResetWarning,0822.1,4.99,000.00,021.5,020.7,000.0,029.9,022.9,15.7,0003.7,0008.69,0005.44,0005.24
2024-01-22 07:33:00,SystemResetWarning,0822.1,4.99,000.00,021.5,020.7,000.0,029.9,022.9,15.7,0003.7,0008.72,0005.44,0005.23
2024-01-22 07:34:00,SystemResetWarning,0822.1,5.00,000.00,021.5,020.6,000.0,029.9,022.9,15.7,0003.8,0008.93,0005.47,0005.24
2024-01-22 07:35:00,SystemResetWarning,0822.0,5.00,000.00,021.5,020.6,000.0,029.9,022.9,15.7,0003.9,0008.99,0005.47,0005.22
2024-01-22 07:36:00,SystemResetWarning,0822.0,5.01,000.00,021.5,020.6,000.0,029.9,022.9,15.7,0003.8,0008.94,0005.44,0005.21
2024-01-22 07:37:00,SystemResetWarning,0822.1,5.00,000.00,021.5,020.6,000.0,029.9,022.9,15.7,0003.7,0008.91,0005.45,0005.22
2024-01-22 07:38:00,SystemResetWarning,0822.1,5.01,000.00,021.5,020.7,000.0,029.9,022.9,15.7,0003.9,0008.88,0005.44,0005.22
2024-01-22 07:39:00,SystemResetWarning,0822.1,5.00,000.00,021.5,020.7,000.0,029.9,022.9,15.8,0003.6,0008.90,0005.45,0005.24
2024-01-22 07:40:00,SystemResetWarning,0822.1,4.99,000.00,021.5,020.7,000.0,029.9,022.8,15.8,0003.6,0008.90,0005.45,0005.24
2024-01-22 07:41:00,SystemResetWarning,0822.1,5.00,000.00,021.5,020.7,000.0,029.9,022.8,15.8,0003.7,0008.91,0005.46,0005.25
2024-01-22 07:42:00,SystemResetWarning,0822.1,5.00,000.00,021.5,020.7,000.0,029.9,022.8,15.9,0003.7,0008.94,0005.48,0005.26
2024-01-22 07:43:00,SystemResetWarning,0822.1,5.00,000.00,021.4,020.7,000.0,029.9,022.8,15.8,0004.1,0008.90,0005.46,0005.24
2024-01-22 07:44:00,SystemResetWarning,0822.2,5.00,000.00,021.4,020.7,000.0,029.9,022.8,15.8,0004.1,0008.86,0005.44,0005.23
2024-01-22 07:45:00,SystemResetWarning,0822.2,5.00,000.00,021.4,020.7,000.0,029.9,022.8,15.9,0004.2,0008.63,0005.40,0005.20
2024-01-22 07:46:00,SystemResetWarning,0822.3,5.00,000.00,021.4,020.7,000.0,029.8,022.8,15.9,0004.3,0008.33,0005.34,0005.17
2024-01-22 07:47:00,SystemResetWarning,0822.3,5.02,000.00,021.4,020.7,000.0,029.8,022.7,15.9,0004.5,0008.25,0005.27,0005.11
2024-01-22 07:48:00,SystemResetWarning,0822.2,5.00,000.00,021.4,020.6,000.0,029.8,022.7,15.9,0004.6,0008.16,0005.15,0004.99
2024-01-22 07:49:00,SystemResetWarning,0822.2,4.99,000.00,021.4,020.6,000.0,029.8,022.7,15.9,0004.5,0008.12,0005.10,0004.93
2024-01-22 07:50:00,SystemResetWarning,0822.3,4.99,000.00,021.4,020.6,000.0,029.8,022.7,15.9,0004.5,0008.07,0005.04,0004.86
2024-01-22 07:51:00,SystemResetWarning,0822.3,5.01,000.00,021.4,020.6,000.0,029.8,022.8,15.9,0004.4,0007.91,0004.96,0004.77
2024-01-22 07:52:00,SystemResetWarning,0822.2,5.01,000.00,021.4,020.6,000.0,029.8,022.8,15.9,0004.3,0007.81,0004.87,0004.67
2024-01-22 07:53:00,SystemResetWarning,0822.2,4.99,000.00,021.4,020.6,000.0,029.8,022.8,15.9,0004.2,0007.65,0004.77,0004.60
2024-01-22 07:54:00,SystemResetWarning,0822.2,4.99,000.00,021.4,020.6,000.0,029.8,022.8,15.9,0004.1,0007.57,0004.70,0004.53
2024-01-22 07:55:00,SystemResetWarning,0822.2,5.00,000.00,021.4,020.6,000.0,029.8,022.8,15.9,0004.0,0007.52,0004.64,0004.48
2024-01-22 07:56:00,SystemResetWarning,0822.3,5.01,000.00,021.4,020.6,000.0,029.8,022.8,15.9,0003.7,0007.42,0004.57,0004.40
2024-01-22 07:57:00,SystemResetWarning,0822.2,5.01,000.00,021.4,020.6,000.0,029.8,022.8,15.9,0003.3,0007.30,0004.48,0004.31
2024-01-22 07:58:00,SystemResetWarning,0822.2,5.00,000.00,021.4,020.6,000.0,029.8,022.8,15.9,0003.3,0007.13,0004.40,0004.23
2024-01-22 07:59:00,SystemResetWarning,0822.2,4.99,000.00,021.4,020.6,000.0,029.8,022.8,15.9,0003.5,0007.06,0004.41,0004.24
